Regional Weather Roundup
Issued by NWS

Home | Current Version | Previous Version | Text Only | Print | Product List | Glossary On
Versions: 1 2 3 4 5 6 7 8 9 10 11 12 13 14 15 16 17 18 19 20 21 22 23 24 25 26 27 28 29 30 31 32 33 34 35 36 37 38 39 40 41 42 43 44 45 46 47 48 49 50
000
ASCA44 KEWX 280220
RWRMX

LATIN AMERICA AND CARIBBEAN REGIONAL WEATHER ROUNDUP
NATIONAL WEATHER SERVICE AUSTIN/SAN ANTONIO TX
900 PM CDT MON JUL 27 2015

NOTE: "FAIR" INDICATED FEW OR NO CLOUDS BELOW 12,000 FEET WITH NO
SIGNIFICANT WEATHER AND/OR OBSTRUCTIONS TO VISIBILITY.

BAJA CALIFORNIA

CITY           SKY/WX    TMP DP  RH WIND       PRES   REMARKS
LORETO           N/A    N/A N/A N/A MISG        N/A
LA PAZ         MOCLDY    90  63  40 W9        29.78R HX  90
MEXICALI       CLEAR    104  39  11 CALM      29.66S HX  98
S.J. DEL CABO  PTCLDY    84  68  58 CALM      29.81R
TIJUANA        CLEAR     70  57  64 W9        29.91R

NORTHWESTERN MEXICO

CITY           SKY/WX    TMP DP  RH WIND       PRES   REMARKS
CULIACAN       PTCLDY    93  73  52 SW7       29.78R HX 102
DURANGO        MOCLDY    70  52  52 S5        30.16R
GUAYMAS        PTCLDY    90  79  70 CALM      29.73R HX 105
HERMOSILLO     PTCLDY    95  70  43 S13       29.81R HX 101
CD. JUAREZ     CLOUDY    88  59  37 S15       29.91R
LOS MOCHIS     PTCLDY    86  70  58 W8        29.78R HX  90
OBREGON        PTCLDY    90  64  43 SW8       29.75S HX  91

NORTHEASTERN MEXICO

CITY           SKY/WX    TMP DP  RH WIND       PRES   REMARKS
CHIHUAHUA      TSTM      88  50  27 NE13G25   29.99R
MATAMOROS      PTCLDY    84  77  79 SE17      29.88S HX  94
MONCLOVA         N/A    N/A N/A N/A MISG        N/A
MONTERREY      CLEAR     90  57  33 E6        29.80R
NUEVO LAREDO     N/A    N/A N/A N/A MISG        N/A
PIEDRAS NEGRAS   N/A    N/A N/A N/A MISG        N/A
REYNOSA        CLEAR     82  70  65 SE16G28   29.84R
SALTILLO       PTCLDY    82  59  44 CALM      30.08R
TORREON        MOCLDY    90  55  31 N5        29.96R
CD. VICTORIA   MOCLDY    88  70  55 S20       29.85R HX  92

WESTERN MEXICO

CITY           SKY/WX    TMP DP  RH WIND       PRES   REMARKS
AGUASCALIENTES PTCLDY    68  41  37 E9        30.16R
COLIMA         CLOUDY    77  73  88 CALM      29.96R
DEL BAJIO      PTCLDY    75  37  25 N5        30.20R
GUADALAJARA    MOCLDY    66  57  72 SW5       30.11S
MANZANILLO       N/A    N/A N/A N/A MISG        N/A
MAZATLAN       PTCLDY    84  73  70 SW9       29.80R HX  91
P. VALLARTA    CLOUDY    79  77  94 NE6       29.82R
URUAPAN          N/A    N/A N/A N/A MISG        N/A
ZACATECAS      PTCLDY    72  43  35 SE7       30.21R

CENTRAL MEXICO

CITY           SKY/WX    TMP DP  RH WIND       PRES   REMARKS
CUERNAVACA       N/A    N/A N/A N/A MISG        N/A
MEXICO CITY    MOCLDY    70  52  52 N12       30.25
MORELIA        MOCLDY    70  61  73 E9        30.16R
POZA RICA      PTCLDY    84  77  79 CALM      29.91R HX  94
PUEBLA         PTCLDY    64  50  59 SE7       30.27R
QUERETARO      PTCLDY    72  52  49 E10       30.22R
S. LUIS POTOSI PTCLDY    73  43  33 E9        30.17R
TAMPICO        MOCLDY    84  75  74 E12       29.87R HX  92
TOLUCA         CLOUDY    59  54  82 SE8       30.34R

SOUTHERN MEXICO

CITY           SKY/WX    TMP DP  RH WIND       PRES   REMARKS
ACAPULCO       MOCLDY    86  81  84 W5        29.81R HX 102
B. DE HUATULCO   N/A    N/A N/A N/A MISG        N/A
OAXACA         MOCLDY    73  57  56 S3        30.16R
P. ESCONDIDO   MOCLDY    88  72  58 CALM      29.92R HX  94
VERACRUZ       CLEAR     82  77  83 E7        29.89R HX  91
ZIHUATANEJO    MOCLDY    88  79  74 W6        29.81R HX 102

YUCATAN PENINSULA

CITY           SKY/WX    TMP DP  RH WIND       PRES   REMARKS
CAMPECHE       PTCLDY    84  79  84 N12G23    29.87R HX  96
CANCUN         PTCLDY    84  77  79 E6        30.00R HX  94
CHETUMAL       MOCLDY    86  77  74 E8        29.95S HX  97
CD. DEL CARMEN CLEAR     86  77  74 NE12      29.87R HX  97
COZUMEL        PTCLDY    79  75  89 E3        29.99R
MERIDA         MOCLDY    86  75  70 E17       29.95R HX  95
MINATITLAN     CLEAR     84  75  74 N17       29.83R HX  92
TAPACHULA      MOCLDY    86  79  79 CALM      29.85R HX  99
TUX. GUTIERREZ MOCLDY    82  68  61 NW10      29.89R
VILLAHERMOSA   CLEAR     86  68  54 E9        29.87R

CENTRAL AMERICA

CITY           SKY/WX    TMP DP  RH WIND       PRES   REMARKS
MANAGUA        PTCLDY    84  72  65 E16       29.83R

CARIBBEAN

CITY           SKY/WX    TMP DP  RH WIND       PRES   REMARKS
ARUBA          PTCLDY    82  75  78 E21       29.89S
CURACAO        PTCLDY    81  75  83 E14       29.92S
KINGSTON       PTCLDY    86  70  58 SE21      29.94R HX  90
NASSAU         PTCLDY    84  75  74 SE5       30.05R HX  92
SAN JUAN       PTCLDY    82  75  78 E16       30.06R
SANTO DOMINGO  PTCLDY    82  72  69 E12       30.03R
ST. CROIX      PTCLDY    82  73  74 E10       30.05
ST. MAARTEN    PTCLDY    82  73  74 E14       30.06R
ST. THOMAS     CLEAR     84  73  70 E15       30.05  HX  91

$$



USA.gov is the U.S. government's official web portal to all federal, state and local government web resources and services.